Regional Weather Roundup
Issued by NWS New Orleans/Baton Rouge, LA

Home | Current Version | Previous Version | Text Only | Print | Product List | Glossary On
Versions: 1 2 3 4 5 6 7 8 9 10 11 12 13 14 15 16 17 18 19 20 21 22 23 24 25 26 27 28 29 30 31 32 33 34 35 36 37 38 39 40 41 42 43 44 45 46 47 48 49 50
000
ASUS44 KLIX 312011
RWRLIX
NEW ORLEANS REGIONAL WEATHER ROUNDUP
NATIONAL WEATHER SERVICE NEW ORLEANS LA
300 PM CDT FRI JUL 31 2015

NOTE: "FAIR" INDICATES FEW OR NO CLOUDS BELOW 12,000 FEET WITH NO
      SIGNIFICANT WEATHER AND/OR OBSTRUCTIONS TO VISIBILITY.
      SKY/WX - SKY CONDITION AND SIGNIFICANT WEATHER.
      TMP - AIR TEMPERATURE.     DP    - DEWPOINT TEMPERATURE.
      RH  - RELATIVE HUMIDITY.   PRES  - PRESSURE.
      HI  - HEAT INDEX.          WCI   - WIND CHILL INDEX.

*  THESE STATIONS ARE NOT NWS OR FAA STATIONS AND ARE NOT UNDER
   NWS QUALITY CONTROL.

LAZ038-040-048-061>063-065>067-069-312100-
SOUTHEAST LOUISIANA

CITY           SKY/WX    TMP DP  RH WIND       PRES   REMARKS
N.O. AUDUBON     N/A     96  77  55 MISG        N/A  HX 111
N.O. INTL ARPT MOSUNNY   92  72  51 N9        29.91F HX  99
N.O. LAKEFRONT SUNNY     91  74  57 NW10      29.92F HX 100
N.O. DOWNTOWN*   N/A     93  73  52 N9        29.92F HX 102
RESERVE*         N/A     95  73  49 N8G16     29.92F HX 104
SLIDELL        PTSUNNY   93  77  59 N7        29.91F HX 107
BATON ROUGE    SUNNY     94  69  44 VRB7      29.94F HX  99
BOOTHVILLE     MOSUNNY   89  77  67 VRB6      29.91F HX 101
BELLE CHASSE   MOSUNNY   93  75  55 NE9       29.90F HX 104
BOGALUSA*        N/A     92  73  52 NE8G17    29.95F HX 100
GALLIANO*      NOT AVBL
NEW ROADS*       N/A    N/A N/A N/A NW9       29.95F
GONZALES*        N/A     92  70  48 N8        29.92F HX  98
HAMMOND*       SUNNY     95  64  36 N9        29.94F HX  97
HOUMA*         MOSUNNY   91  73  55 N6        29.91F HX 100
PORT FOURCHON* MOCLDY    90  75  62 NE7       29.92S HX 100

$$

MSZ070-080>082-312100-
SOUTHERN MISSISSIPPI

CITY           SKY/WX    TMP DP  RH WIND       PRES   REMARKS
MCCOMB         SUNNY     94  64  37 N14       29.96F HX  95
GULFPORT       MOSUNNY   94  75  54 NE8       29.89F HX 105
BILOXI         MOSUNNY   92  77  61 NE8       29.89F HX 107
PASCAGOULA     PTSUNNY   92  77  61 N8        29.89F HX 105
STENNIS ARPT*  MOSUNNY   93  72  49 NE7       29.90F HX 100

$$

COASTAL OBSERVATIONS
LAKE AND NEARSHORE STATIONS

STATION/POSITION TIME  TEMP    WIND        PRES    WAVE
                       AIR SEA DIR/SP/G            HT/PER
                 (UTC) (F)     (DEG/KT/KT) (MB)    (FT/S)
PASCAGOULA       1900   89     200/  7/  9 1012.5
WAVELAND YACHT   1900   89 86  360/  4/  6 1013.5
GRAND ISLE       1900   88 89  350/  5/  6 1013.3
SOUTHWEST PASS   1900   87 87  360/  4/  5 1013.5
NEW CANAL        1900   87 88   CALM  /  5 1012.9
SHELL BEACH      1900   85 88   20/  7/  8 1012.7

OFFSHORE STATIONS

STATION/POSITION TIME  TEMP    WIND        PRES    WAVE
                       AIR SEA DIR/SP/G            HT/PER
                 (UTC) (F)     (DEG/KT/KT) (MB)    (FT/S)
64 S DAUPHIN ISL 1950   86 93   10/  2/  4 1012.3    1/ 4

$$



USA.gov is the U.S. government's official web portal to all federal, state and local government web resources and services.